SCP
1 2 1 1 1 1 1 1 2 2 2 2 1 1 1 1 1 1 0 0 0 0 0 0 0 0 0 0 0 0 0 0 0 0 0 0 0 0 0 0 0 0 0
1 2 2 1 1 1 1 1 2 2 2 2 1 1 1 1 1 1 0 0 0 0 0 0 0 0 0 0 0 0 0 0 0 0 0 0 0 0 0 0 0 0 0
2 2 2 2 2 1 1 1 1 2 2 2 2 1 1 1 1 1 1 0 0 0 0 0 0 0 0 0 0 0 0 0 0 0 0 0 0 0 0 0 0 0 0
2 2 2 2 2 2 2 1 1 2 2 2 2 1 1 1 1 1 1 0 0 0 0 0 0 0 0 0 0 0 0 0 0 0 0 0 0 0 0 0 0 0 0
2 2 2 2 2 2 2 1 1 1 2 2 2 1 1 1 1 1 1 1 1 0 0 0 0 0 0 0 0 0 0 0 0 0 0 0 0 0 0 0 0 0 0
1 1 1 2 2 2 2 2 1 1 1 2 2 1 1 1 1 1 1 1 1 1 0 0 0 0 0 0 0 0 0 0 0 0 0 0 0 0 0 0 0 0 0
1 1 1 2 2 2 2 2 1 1 1 1 1 1 1 1 1 1 1 1 1 1 0 0 0 0 0 0 0 0 0 0 0 0 0 0 0 0 0 0 0 0 0
1 1 1 2 2 2 2 1 1 1 1 1 1 1 1 1 1 1 1 1 1 1 0 0 0 0 0 0 0 0 0 0 0 0 0 0 0 0 0 0 0 0 0
1 1 1 1 1 1 1 1 1 1 1 1 1 1 1 1 1 1 1 1 1 1 1 1 0 0 0 0 1 1 0 0 0 0 0 0 0 0 0 0 0 0 0
1 1 1 1 1 1 1 1 1 1 1 1 1 1 1 1 1 1 1 1 1 1 1 1 1 1 1 1 1 0 0 0 0 0 0 0 0 0 0 0 0 0 0
1 1 1 1 1 1 1 1 1 1 1 1 1 1 1 1 1 1 1 1 1 1 1 1 1 1 1 1 0 0 0 0 0 0 0 0 0 0 0 0 0 0 0
0 0 1 1 1 1 1 1 1 1 1 1 1 1 1 1 1 1 1 1 1 1 1 1 1 1 1 1 0 0 0 0 0 0 0 0 0 0 0 0 0 0 1
0 0 0 0 0 1 1 1 1 1 1 1 1 1 1 1 1 1 1 1 1 1 1 1 1 1 1 0 0 0 0 0 0 0 0 0 0 0 0 0 0 1 1
0 0 0 1 1 0 0 1 1 1 1 1 1 1 1 1 1 1 1 1 1 1 1 1 1 1 0 0 0 0 0 0 0 0 0 0 0 0 0 0 0 1 1
0 0 0 1 1 1 1 1 1 1 1 1 1 1 1 1 1 1 1 1 1 1 0 0 0 1 0 0 1 1 1 0 0 0 0 0 0 0 0 0 1 1 1
0 0 0 1 1 1 1 1 1 1 1 1 1 1 1 1 1 1 1 0 0 1 0 0 0 1 1 0 1 1 1 1 0 0 0 0 0 0 0 0 1 1 1
0 0 0 0 0 0 1 1 0 0 0 1 1 1 1 1 1 1 0 0 0 0 0 0 1 1 1 1 1 1 1 0 0 0 0 0 0 0 0 1 1 1 1
0 0 0 0 0 0 0 0 0 0 0 0 1 1 1 1 1 1 1 0 0 0 0 0 1 1 1 1 1 0 0 0 0 0 0 0 0 0 0 1 1 1 1
0 0 0 0 0 0 0 0 0 0 0 0 0 1 1 1 1 1 1 0 0 0 0 1 1 1 1 1 1 0 0 0 0 0 0 0 0 0 0 0 0 1 1
0 0 0 0 0 1 1 0 0 0 0 0 0 0 1 1 1 1 1 1 1 1 1 1 1 1 1 1 1 0 0 0 0 0 0 0 0 0 0 0 0 0 0
0 0 0 0 0 1 1 0 0 0 0 1 1 1 1 1 1 1 1 1 1 1 1 1 1 1 1 1 1 0 0 0 0 0 0 0 0 0 0 0 0 0 0
0 0 0 0 0 0 0 0 0 0 0 1 1 0 1 1 1 1 1 1 1 1 1 1 1 1 1 1 1 0 0 0 0 0 0 0 0 0 0 0 0 0 0
0 0 0 0 0 0 0 0 0 0 0 0 0 0 0 0 0 0 1 1 1 1 1 1 1 1 1 1 1 0 0 0 0 0 0 0 0 0 0 0 0 0 0
0 0 0 0 0 0 0 0 0 0 0 0 0 0 0 0 0 0 1 1 1 1 1 1 1 1 1 1 1 1 1 0 0 0 0 0 0 0 0 0 0 0 0
0 0 0 0 0 0 0 0 0 0 0 0 0 0 0 0 0 0 1 1 1 1 1 1 1 1 1 1 1 0 0 0 0 0 0 0 0 0 0 0 0 0 0
0 0 0 0 0 0 0 0 0 0 0 0 0 0 0 0 0 0 1 1 1 1 1 1 1 1 1 1 1 0 0 0 0 0 0 0 0 0 0 0 0 0 0
Wind_Speed
2 2 3 7 9 10 9 10 10 10 10 10 11 12 12 12 11 11 10 10 10 9 9 10 10 11 11 11 11 11 11 11 11 10 10 9 10 10 11 10 10 6 11
2 2 3 6 9 9 9 9 9 9 9 9 10 11 11 11 11 10 10 9 9 9 9 9 10 10 10 11 11 11 11 11 10 10 9 7 7 9 10 10 9 6 10
1 0 2 5 7 8 8 8 9 9 8 8 9 10 10 10 10 10 9 9 9 8 8 8 9 10 10 10 10 10 10 9 9 8 7 4 4 8 9 9 8 8 8
2 2 2 4 6 7 7 8 8 8 8 8 8 8 8 9 9 9 9 8 8 8 8 8 8 9 9 9 9 9 9 8 7 7 4 3 2 6 7 7 7 7 8
3 3 3 4 4 5 5 6 6 7 7 7 7 7 7 8 8 8 8 7 7 7 7 8 8 8 8 8 9 8 8 7 7 5 3 2 1 4 6 6 6 6 6
4 3 3 5 4 4 4 4 4 5 6 6 6 7 6 7 8 8 7 7 6 7 7 7 7 7 7 7 8 8 7 7 5 3 2 1 1 3 4 5 5 5 5
4 4 4 5 5 4 3 3 3 3 3 5 6 6 6 6 7 8 7 7 7 7 7 7 7 7 6 7 8 7 6 6 4 2 1 0 1 2 4 4 4 4 4
3 4 4 5 5 4 3 2 2 1 2 3 4 5 5 5 6 7 8 7 8 8 7 7 7 7 7 7 7 6 6 5 4 2 1 1 3 2 3 3 3 3 3
4 4 4 3 3 3 3 2 2 1 0 1 2 2 3 3 4 6 7 8 8 8 8 7 7 7 6 6 6 6 5 5 3 2 2 2 4 4 3 3 4 3 2
5 5 4 4 3 3 2 2 2 2 1 1 1 1 2 3 4 5 5 6 7 8 8 8 7 7 6 6 6 6 5 4 3 2 1 3 6 5 5 4 4 4 3
6 5 4 4 3 3 2 3 2 2 2 1 1 1 1 1 2 3 5 6 7 7 7 8 8 7 6 5 5 5 4 2 2 2 2 5 7 7 6 5 5 5 4
5 5 4 4 4 3 3 2 1 1 1 1 1 1 1 1 2 3 5 6 7 7 7 8 8 6 4 2 3 4 2 3 3 2 3 7 8 8 7 6 6 6 6
3 4 4 4 4 3 2 2 1 1 1 1 1 1 1 1 1 2 2 3 4 5 4 4 4 3 3 3 2 2 3 3 2 2 4 8 8 9 8 7 7 7 7
3 4 4 4 4 3 2 2 1 1 1 1 2 2 1 1 2 2 2 2 2 2 3 3 2 3 3 4 4 4 4 3 3 2 3 7 9 9 9 8 8 8 8
3 4 4 4 4 3 3 2 2 2 2 2 2 2 2 2 3 3 3 3 3 3 3 3 4 4 4 4 4 4 5 5 4 4 3 6 8 9 9 9 8 8 8
4 4 4 4 3 3 2 2 2 2 2 2 2 3 3 3 3 3 3 4 4 3 4 4 5 4 4 4 5 5 5 4 4 4 4 4 7 8 9 9 9 8 8
4 4 5 4 4 4 3 3 2 3 2 2 3 3 3 3 3 3 3 4 4 4 4 4 4 3 4 4 5 5 4 5 5 5 5 4 4 6 8 9 9 9 9
4 4 5 5 4 4 4 4 3 3 3 3 2 2 3 4 4 3 3 4 4 3 4 4 4 4 4 4 4 4 4 4 5 5 4 4 3 3 5 8 8 8 8
4 4 4 4 4 4 4 4 3 3 3 2 2 2 3 4 4 4 4 4 4 3 4 5 4 4 4 4 4 4 4 4 4 4 4 5 4 4 3 5 7 7 8
4 4 4 5 5 4 3 3 2 2 2 2 2 2 3 3 3 3 3 4 3 3 4 4 4 4 3 4 4 4 4 4 3 4 5 4 4 4 4 4 4 4 6
4 4 4 4 5 4 3 3 2 3 2 2 2 2 3 3 3 3 3 3 3 4 4 4 4 4 4 2 2 2 3 4 4 4 4 4 4 4 4 4 3 3 3
5 5 5 4 4 3 2 2 2 3 2 2 2 2 2 2 3 2 3 2 3 3 4 4 4 3 3 3 3 2 2 2 3 4 4 4 5 3 4 4 4 3 3
5 5 5 5 5 4 3 2 2 2 2 2 2 2 2 2 2 2 2 2 3 3 3 4 5 5 4 3 3 3 3 4 2 2 3 4 4 3 3 3 4 4 4
5 5 5 5 4 4 3 2 2 2 2 2 2 2 3 2 2 2 2 2 2 2 3 3 4 4 4 4 3 3 2 1 2 2 2 2 3 3 3 3 3 4 3
4 5 5 5 4 4 3 2 2 3 3 2 2 2 3 2 2 2 1 1 1 2 2 2 2 3 3 3 3 2 2 1 2 2 3 2 1 2 3 3 3 3 3
4 4 4 5 5 4 3 2 2 3 2 2 2 2 2 2 2 2 1 1 1 1 2 2 2 2 2 2 2 2 2 2 2 2 3 2 2 2 2 2 2 2 2
Wind_Direction
289 268 197 150 143 141 139 139 135 131 129 129 128 130 130 130 131 130 129 127 126 123 121 121 118 114 110 108 105 102 99 95 90 88 84 89 93 92 91 86 80 71 82
250 239 184 153 148 145 142 137 136 135 136 136 136 135 136 136 136 135 135 133 130 127 125 125 125 119 115 113 111 107 103 98 93 86 77 74 85 93 94 90 89 83 83
40 94 145 144 146 145 145 144 140 139 142 142 142 142 143 143 143 144 143 141 136 133 131 129 129 126 122 120 119 115 110 106 101 92 78 63 84 97 98 97 93 88 87
59 55 95 124 139 145 146 148 152 150 150 148 149 151 151 151 151 150 149 149 144 139 136 134 129 130 129 128 126 123 119 114 106 96 74 57 65 103 103 102 96 92 88
54 43 66 98 122 133 141 151 156 161 162 161 157 159 163 162 160 156 154 154 151 145 142 141 137 136 137 138 136 131 126 119 108 95 83 63 45 108 106 102 96 95 90
44 37 53 77 99 118 134 144 156 164 171 172 171 171 174 174 170 166 160 156 153 150 151 151 149 150 150 149 147 141 133 124 108 99 98 73 21 123 117 112 109 107 102
37 26 35 60 72 94 115 140 156 164 173 180 183 186 186 184 180 175 168 166 164 162 164 164 163 164 163 160 158 150 140 133 123 119 129 235 254 154 135 130 129 124 114
44 26 24 38 49 58 76 94 131 162 176 176 184 193 196 194 189 184 178 177 177 176 179 180 178 176 172 171 169 160 151 145 138 150 178 234 252 192 165 158 153 137 132
36 33 20 19 24 30 37 43 39 32 298 214 212 210 209 198 193 192 189 188 188 189 190 192 191 188 185 183 177 167 159 154 142 170 202 230 246 217 193 187 182 172 172
29 25 16 13 14 8 356 4 2 4 356 318 278 238 222 209 206 202 197 199 198 198 197 197 199 199 191 187 182 176 168 152 159 185 215 241 243 230 217 208 206 206 205
18 11 10 9 7 360 345 343 342 336 326 313 275 251 232 220 212 209 206 205 206 204 203 205 205 203 195 190 188 183 169 160 177 206 224 244 240 236 232 222 221 225 229
359 354 3 3 359 354 342 345 332 325 311 286 268 241 233 222 222 221 213 213 212 208 208 211 210 203 192 183 191 186 173 176 190 218 234 244 242 240 238 231 226 230 233
337 348 352 351 351 351 340 334 332 322 311 288 259 232 229 224 225 221 206 215 214 208 203 210 213 197 186 186 190 191 192 191 202 220 239 246 244 242 242 237 229 231 234
345 340 341 344 344 340 335 323 310 308 299 285 269 242 211 217 223 219 212 213 209 206 201 198 196 198 201 202 202 205 206 207 212 217 236 244 246 245 244 244 235 233 237
339 330 327 335 337 333 333 319 318 293 284 277 264 247 222 216 224 225 221 216 212 208 206 201 201 202 210 214 215 215 218 218 219 218 235 240 243 246 244 244 242 240 240
325 322 322 326 321 324 323 311 302 287 276 273 263 251 234 221 219 224 227 222 218 212 211 208 208 209 214 216 224 222 222 220 223 222 223 237 239 239 239 241 244 243 243
315 318 321 318 322 322 315 304 302 294 286 269 262 257 244 231 222 219 225 227 223 215 212 212 212 213 218 218 226 225 223 221 220 223 221 223 231 235 237 240 243 245 248
318 319 320 327 330 323 315 306 297 290 282 272 266 261 253 242 230 220 223 230 226 216 211 212 210 213 220 223 228 228 223 221 223 221 217 218 219 225 232 237 241 244 247
320 317 320 325 324 320 315 305 298 291 286 280 274 266 261 251 239 227 229 231 220 217 220 221 213 208 217 224 229 230 225 223 222 217 217 217 215 214 216 232 238 242 246
326 324 323 325 326 324 318 315 313 304 294 288 279 277 271 263 251 234 233 232 220 219 222 221 220 212 214 218 231 235 230 227 217 217 218 216 213 216 216 220 228 240 244
338 337 330 329 327 333 333 330 321 310 302 296 285 286 277 270 263 242 245 231 219 221 224 218 218 218 218 193 210 244 247 229 223 219 211 214 219 218 215 217 214 214 235
331 329 325 321 319 321 316 303 284 285 285 282 292 301 294 286 275 258 238 240 234 227 225 222 214 219 215 189 186 198 248 257 236 222 209 214 222 211 213 217 212 212 216
330 322 317 311 311 312 316 316 315 308 305 312 317 314 308 301 287 272 255 240 238 231 230 224 214 215 222 207 195 189 198 224 237 235 218 218 213 210 217 212 213 215 213
316 317 314 312 312 315 315 316 314 305 292 289 295 298 306 304 295 285 270 253 243 237 242 239 223 217 212 213 208 221 225 190 192 243 253 231 216 218 221 222 218 216 212
315 319 318 320 319 318 309 286 281 284 283 296 307 305 308 311 304 298 284 273 264 253 247 241 230 216 214 216 204 199 221 238 222 213 250 258 252 236 227 224 219 215 211
319 324 323 323 322 322 314 299 265 271 284 298 303 303 308 311 323 329 327 327 308 285 266 250 225 209 205 210 212 203 193 198 203 214 235 245 249 248 240 228 220 217 217